BREEZE-M DEB (TANK)

Satellite information

Favourite Embed

Satellite Type and Status

DEBRISIN ORBIT

Key statistics

Satellite BREEZE-M DEB (TANK) at a glance.

Uptime

6168

Days in orbit

Revolutions

≈ 5.7

Per day

Orbit

MEO

Medium Earth Orbit

Inclination

46.0

Latest

Satellite identification and parameters

Extended collection of information and parameters for BREEZE-M DEB (TANK).

Object identification

Identified? True

Debris? True

Object name: BREEZE-M DEB (TANK)

International designator: 2008-039B

Object number (NORAD): 33279

Object ID (CCSDS): 33279

Country: COMMONWEALTH OF INDEPENDENT STATES (CIS)

Current information (Y/N): Y

RCS size: LARGE

Orbital parameters

Period: 250.784 minutes

Inclination: 46.0244 deg

SMA: 13173.274 km

Apoapsis: 13153.436 km

Periapsis: 436.843 km

RAAN: 348.3208 deg

Eccentricy: 0.4826664

Argument of periapsis: 25.2565 deg

Mean anomaly: 352.1326 deg

Mean motion: 5.74198628 rev/day

Mean motion (dot): 0.00000153 rev/day2

B* drag term: 0.00017054 1/REarth

Two-line elements (TLE)

Creation date: July 6, 2025, 6:05 p.m.

Reference frame: TEME

Reference center: EARTH

Epoch: July 6, 2025, 11:51 a.m. UTC

TLE line 0: 0 BREEZE-M DEB (TANK)

TLE line 1: 1 33279U 08039B 25187.49430674 .00000153 00000-0 17054-3 0 9993

TLE line 2: 2 33279 46.0244 348.3208 4826664 25.2565 352.1326 5.74198628350847

Live tracking on map

Real-time ground track for satellite BREEZE-M DEB (TANK).

In-orbit conjunctions

There are no conjunctions computed for BREEZE-M DEB (TANK), at the moment. Check back to stay up to date, as we update our databases every day.

Go to all conjunctions

Associated space launch

Inmarsat geostationary communications satellite

BREEZE-M DEB (TANK) was lifted into orbit during the mission ‘Proton-M Briz-M | Inmarsat 4 F3’, on board a Proton-M Briz-M space rocket.

The launch took place on Aug. 18, 2008, 10:43 p.m. from 200/39 (200L).

For more information about the launch, click the button.

Launch to space Proton-M Briz-M | Inmarsat 4 F3
Proton-M Briz-M | Inmarsat 4 F3

Agency: N/A

Status: Launch Successful

Launch date: Aug. 18, 2008, 10:43 p.m. UTC

Rocket: Proton-M Briz-M

Launch pad: 200/39 (200L)

Location: Baikonur Cosmodrome, Republic of Kazakhstan

...

Latest news about this satellite

There are no fresh news available about this satellite. Check back as we update our databases every day.


Newsletter sign-up

Weekly statistics, charts and insights to help you stay on top of the space industry.